This is the latest recevied weather packets stored in our database for station/object W4JCW. If no packets are shown the sender has not sent any weather packets the latest 10 day(s).
| Time | Temp. | Humidity | Pressure | Rain* | Wind** | Luminosity | Snow |
|---|---|---|---|---|---|---|---|
| 1777479941 | 23.89° C | 68% | 1011.2 hPa | 0 mm | - | 261 W/m² | - |
| 1777479638 | 23.89° C | 69% | 1011.1 hPa | 0 mm | - | 430 W/m² | - |
| 1777479336 | 23.89° C | 69% | 1011.3 hPa | 0 mm | - | 478 W/m² | - |
| 1777479032 | 23.33° C | 71% | 1011.6 hPa | 0 mm | - | 405 W/m² | - |
| 1777478729 | 22.78° C | 72% | 1011.4 hPa | 0 mm | - | 196 W/m² | - |
| 1777478425 | 22.78° C | 72% | 1011.8 hPa | 0 mm | - | 155 W/m² | - |
| 1777478122 | 22.78° C | 71% | 1011.7 hPa | 0 mm | - | 144 W/m² | - |
| 1777477819 | 22.78° C | 70% | 1012 hPa | 0 mm | - | 161 W/m² | - |
| 1777477514 | 23.33° C | 69% | 1012.1 hPa | 0 mm | - | 278 W/m² | - |
| 1777477211 | 23.33° C | 70% | 1011.7 hPa | 0 mm | - | 339 W/m² | - |
| 1777476907 | 23.33° C | 69% | 1012 hPa | 0 mm | - | 459 W/m² | - |
| 1777476605 | 23.33° C | 71% | 1012.2 hPa | 0 mm | - | 475 W/m² | - |
| 1777476301 | 22.78° C | 70% | 1012 hPa | 0 mm | - | 463 W/m² | - |
| 1777475996 | 22.78° C | 71% | 1012.1 hPa | 0 mm | - | 394 W/m² | - |
| 1777475693 | 23.33° C | 73% | 1012.2 hPa | 0 mm | - | 335 W/m² | - |
| 1777475389 | 22.78° C | 73% | 1012.3 hPa | 0 mm | - | 418 W/m² | - |
| 1777475084 | 22.78° C | 73% | 1012.4 hPa | 0 mm | - | 342 W/m² | - |
| 1777474782 | 22.78° C | 74% | 1012.6 hPa | 0 mm | - | 306 W/m² | - |
| 1777474477 | 22.78° C | 75% | 1012.3 hPa | 0 mm | - | 326 W/m² | - |
| 1777474174 | 22.22° C | 75% | 1012.7 hPa | 0 mm | - | 322 W/m² | - |
| 1777473872 | 21.67° C | 77% | 1012.5 hPa | 0 mm | - | 342 W/m² | - |
| 1777473569 | 21.11° C | 81% | 1012.6 hPa | 0 mm | - | 259 W/m² | - |
| 1777473265 | 20.56° C | 83% | 1012.8 hPa | 0 mm | - | 268 W/m² | - |
| 1777472961 | 20.56° C | 84% | 1012.7 hPa | 0 mm | - | 244 W/m² | - |
| 1777472658 | 20° C | 85% | 1012.7 hPa | 0 mm | - | 231 W/m² | - |
* Rain latest hour (hover to see other rain measurements)
** Current wind speed in m/s (hover to see current wind gust speed)